Weather Roundup
Issued by NWS Chicago, IL

Home | Current Version | Previous Version | Graphics & Text | Print | Product List | Glossary On
Versions: 1 2 3 4 5 6 7 8 9 10 11 12 13 14 15 16 17 18 19 20 21 22 23 24 25 26 27 28 29 30 31 32 33 34 35 36 37 38 39 40 41 42 43 44 45 46 47 48 49 50
000
NZUS59 KLOT 070006
HRRLOT

CHICAGO AREA WEATHER ROUNDUP
NATIONAL WEATHER SERVICE CHICAGO/ROMEOVILLE IL
600 PM CST FRI MAR 06 2015

NOTE: "FAIR" INDICATES FEW OR NO CLOUDS BELOW 12,000 FEET WITH NO
SIGNIFICANT WEATHER AND/OR OBSTRUCTIONS TO VISIBILITY.

* THESE STATIONS ARE NOT UNDER NWS QUALITY CONTROL. THEY ALSO MAY NOT
  REPORT WEATHER SUCH AS PRECIPITATION OR FOG.

ILZ005-006-012>014-019>023-070100-
NORTHEAST ILLINOIS

CITY           SKY/WX    TMP DP  RH WIND       PRES   REMARKS
OHARE          PTCLDY    25  16  68 SW16G24   30.17F WCI  12
6HR MIN TEMP:  21; 6HR MAX TEMP:  27;

MIDWAY         PTCLDY    25  14  63 S16       30.20F WCI  12
6HR MIN TEMP:  23; 6HR MAX TEMP:  27;

AURORA         CLEAR     26  16  65 S10       30.19S WCI  16
6HR MIN TEMP:  20; 6HR MAX TEMP:  28;

LANSING*       CLEAR     22  15  72 SW15G23   30.23S WCI   9
JOLIET*        CLEAR     24  17  73 S9        30.22S WCI  15
WAUKEGAN       CLEAR     25  16  68 SW20      30.13S WCI  11
6HR MIN TEMP:  24; 6HR MAX TEMP:  29;

DUPAGE AIRPORT CLEAR     25  16  68 S14       30.17F WCI  13
6HR MIN TEMP:  20; 6HR MAX TEMP:  26;

WHEELING       CLEAR     26  15  63 SW13      30.18F WCI  15
6HR MIN TEMP:  24; 6HR MAX TEMP:  29;

KANKAKEE*      CLEAR     22  16  78 S12       30.25F WCI  10
MORRIS*        CLEAR     25  19  80 S9        30.21S WCI  15
LEWIS AIRPORT* CLEAR     24  17  75 S12       30.20F WCI  12
NORTHERLY IS     N/A     25  15  66 S13         N/A  WCI  14
$$

WIZ051-052-058>065-066-070>072-070100-
SOUTHEAST WISCONSIN

CITY           SKY/WX    TMP DP  RH WIND       PRES   REMARKS
MILWAUKEE      PTCLDY    26  15  63 SW16      30.10F WCI  14
6HR MIN TEMP:  23; 6HR MAX TEMP:  28;

KENOSHA*       PTCLDY    26  16  65 SW15G25   30.12S WCI  14
RACINE*        PTCLDY    25  15  66 SW14      30.13S WCI  13
BURLINGTON     CLEAR     23  16  75 S9        30.11F WCI  13
WAUKESHA       CLEAR     25  14  63 SW15G29   30.10F WCI  12
WEST BEND      CLEAR     25  14  63 SW10G16   30.06S WCI  15
$$

INZ001>003-010>013-019-020-070100-
NORTHWEST INDIANA

CITY           SKY/WX    TMP DP  RH WIND       PRES   REMARKS
GARY*          CLEAR     25  10  54 S20G32    30.23F WCI  11
MICHIGAN CITY* NOT AVBL
RENSSELAER*    NOT AVBL
VALPARAISO     CLEAR     22  11  62 SW14      30.23F WCI   9
$$

LMZ740>746-070100-
SOUTHERN LAKE MICHIGAN

STATION/POSITION TIME  SKY/WX   TEMP WIND        PRES    VSBY
                                AIR  DIR/SP/G
                 (UTC)          (F)  (DEG/KT/KT) (MB)    (MI)
HARRISON CRIB    0000            25  200/ 23/ 30   N/A
BURNHAM HARBOR   0000            25  200/ 15/ 17   N/A
CALUMET HARBOR   0000            25  200/ 15/ 24 1021.4F
BURNS HARBOR     NOT AVBL
MICHIGAN CITY    0000            24  180/ 17/ 20   N/A
$$

ABBREVIATIONS USED IN REMARKS
   TC - TEMPERATURE IN CELSIUS
  WCI - WIND CHILL INDEX
   HX - HEAT INDEX
  VSB - VISIBILITY
$$



USA.gov is the U.S. government's official web portal to all federal, state and local government web resources and services.